Probability
0 0 0 0 0 0 0 0 1 2 2 2 1 0 0 0 0 1 2 2 1 1 1 1 0 0 0 0 0 0 0 0 0 0 0 0 0 0 0 0 0 0 0
0 0 0 0 0 0 0 0 0 1 1 1 0 0 0 0 0 0 1 1 1 1 2 1 0 0 0 0 0 0 0 0 0 0 0 0 0 0 0 0 0 0 0
0 0 0 0 0 0 0 0 0 0 0 0 0 0 0 0 0 0 0 0 0 1 1 1 0 0 0 0 0 0 0 0 0 0 0 0 0 0 0 0 0 0 0
0 0 0 0 0 0 0 0 0 0 0 0 0 0 0 0 0 0 0 0 0 0 0 0 0 0 0 0 0 0 0 0 0 0 0 0 0 0 0 0 0 0 0
0 0 0 0 0 0 0 0 0 0 0 0 0 0 0 0 0 0 0 0 0 0 0 0 0 0 0 0 0 0 0 0 0 0 0 0 0 0 0 0 0 0 0
0 0 0 0 0 0 0 0 0 0 0 0 0 0 0 0 0 0 0 0 0 0 0 0 0 0 0 0 0 0 0 0 0 0 0 0 0 0 0 0 0 0 0
0 0 0 0 0 0 0 0 0 0 0 0 0 0 0 0 0 0 0 0 0 0 0 0 0 0 0 0 0 0 0 0 0 0 0 0 0 0 0 0 0 0 0
0 0 0 0 0 0 0 0 0 0 0 0 0 0 0 0 0 0 0 0 0 0 0 0 0 0 0 0 0 0 0 0 0 0 0 0 0 0 0 0 0 0 0
0 0 0 0 0 0 0 0 0 0 0 0 0 0 0 0 0 0 0 0 0 0 0 0 0 0 0 0 0 0 0 0 0 0 0 0 0 0 0 0 0 0 0
0 0 0 0 0 0 0 0 0 0 0 0 0 0 0 0 0 0 0 0 0 0 0 0 0 0 0 0 0 0 0 0 0 0 0 0 0 0 0 0 0 0 0
0 0 0 0 0 0 0 0 0 0 0 0 0 0 0 0 0 0 0 0 0 0 0 0 0 0 0 0 0 0 0 0 0 0 0 0 0 0 0 0 0 0 0
0 0 0 0 0 0 0 0 0 0 0 0 0 0 0 0 0 0 0 0 0 0 0 0 0 0 0 0 0 0 0 0 0 0 0 0 0 0 0 0 0 0 0
0 0 0 0 0 0 0 0 0 0 0 0 0 0 0 0 0 0 0 0 0 0 0 0 0 0 0 0 0 0 0 0 0 0 0 0 0 0 0 0 0 0 0
0 0 0 0 0 0 0 0 0 0 0 0 0 0 0 0 0 0 0 0 0 0 0 0 0 0 0 0 0 0 0 0 0 0 0 0 0 0 0 0 0 0 0
0 0 0 0 0 0 0 0 0 0 0 0 0 0 0 0 0 0 0 0 0 0 0 0 0 0 0 0 0 0 0 0 0 0 0 0 0 0 0 0 0 0 0
0 0 0 0 0 0 0 0 0 0 0 0 0 0 0 0 0 0 0 0 0 0 0 0 0 0 0 0 0 0 0 0 0 0 0 0 0 0 0 0 0 0 0
0 0 0 0 0 0 0 0 0 0 0 0 0 0 0 0 0 0 0 0 0 0 0 0 0 0 0 0 0 0 0 0 0 0 0 0 0 0 0 0 0 0 0
0 0 0 0 0 0 0 0 0 0 0 0 0 0 0 0 0 0 0 0 0 0 0 0 0 0 0 0 0 0 0 0 0 0 0 0 0 0 0 0 0 0 0
0 0 0 0 0 0 0 0 0 0 0 0 0 0 0 0 0 0 0 0 0 0 0 0 0 0 0 0 0 0 0 0 0 0 0 0 0 0 0 0 0 0 0
0 0 0 0 0 0 0 0 0 0 0 0 0 0 0 0 0 0 0 0 0 0 0 0 0 0 0 0 0 0 0 0 0 0 0 0 0 0 0 0 0 0 0
0 0 0 0 0 0 0 0 0 0 0 0 0 0 0 0 0 0 0 0 0 0 0 0 0 0 0 0 0 0 0 0 0 0 0 0 0 0 0 0 0 0 0
0 0 0 0 0 0 0 0 0 0 0 0 0 0 0 0 0 0 0 0 0 0 0 0 0 0 0 0 0 0 0 0 0 0 0 0 0 0 0 0 0 0 0
0 0 0 0 0 0 0 0 0 0 0 0 0 0 0 0 0 0 0 0 0 0 0 0 0 0 0 0 0 0 0 0 0 0 0 0 0 0 0 0 0 0 0
0 0 0 0 0 0 0 0 0 0 0 0 0 0 0 0 0 0 0 0 0 0 0 0 0 0 0 0 0 0 0 0 0 0 0 0 0 0 0 0 0 0 0
0 0 0 0 0 0 0 0 0 0 0 0 0 0 0 0 0 0 0 0 0 0 0 0 0 0 0 0 0 0 0 0 0 0 0 0 0 0 0 0 0 0 0
0 0 0 0 0 0 0 0 0 0 0 0 0 0 0 0 0 0 0 0 0 0 0 0 0 0 0 0 0 0 0 0 0 0 0 0 0 0 0 0 0 0 0
Wind_Speed
1 1 1 1 1 1 1 2 2 2 2 3 3 3 3 3 2 3 3 4 4 4 4 5 6 5 4 4 3 4 4 5 8 7 5 4 5 6 7 6 6 6 6
1 1 1 0 0 0 1 2 1 1 2 3 2 3 3 3 2 3 4 4 4 5 5 5 6 5 5 4 3 4 4 5 6 9 7 5 6 6 6 6 6 6 5
1 1 1 1 0 1 1 1 1 1 2 2 2 2 3 3 3 3 3 4 4 4 4 5 5 4 5 4 4 4 4 5 4 6 7 5 5 5 6 6 6 5 6
1 1 1 0 1 1 1 1 1 1 1 2 2 2 2 3 3 3 3 4 4 4 4 4 5 5 5 5 5 5 4 4 4 5 6 5 5 5 4 5 6 5 5
2 1 1 1 1 1 1 1 1 1 2 2 2 2 2 2 2 3 3 3 3 4 3 4 4 5 7 6 5 4 4 4 4 4 5 5 5 4 5 4 6 6 6
2 1 2 2 1 1 1 1 2 1 2 2 1 2 3 3 4 6 5 3 3 3 4 4 4 5 6 8 9 9 7 6 5 5 5 6 7 6 5 5 5 6 6
2 2 2 2 2 2 2 2 2 2 2 2 2 2 3 3 5 5 6 4 3 3 3 3 4 4 6 4 6 8 8 9 9 7 7 8 7 6 5 5 5 6 6
3 3 2 2 2 2 2 2 2 2 2 2 2 2 2 3 5 6 6 4 2 3 3 3 4 5 5 5 4 4 5 5 6 5 6 7 7 6 5 5 5 5 5
3 3 3 2 2 2 2 3 2 2 2 2 2 2 2 4 5 6 6 2 2 3 3 3 4 4 6 8 5 4 5 5 6 7 7 8 9 8 6 3 3 3 4
2 2 2 2 2 3 3 3 2 2 2 2 3 2 3 3 5 5 5 2 2 3 3 3 5 5 7 7 4 3 4 5 5 6 6 7 6 6 6 3 3 3 3
3 2 2 2 2 3 2 2 2 2 2 2 3 3 3 3 4 5 5 2 2 3 3 3 3 6 6 6 5 3 4 5 4 4 4 4 4 3 3 3 2 2 3
2 2 3 3 3 2 2 2 2 1 2 2 2 3 2 3 4 5 6 5 4 3 3 3 3 6 6 6 5 4 6 6 3 3 3 4 4 3 3 3 3 2 2
2 2 3 3 3 2 2 2 2 1 1 2 2 3 3 3 3 5 6 6 6 3 3 4 5 6 6 5 5 6 5 3 3 3 3 3 3 3 3 3 3 2 3
2 3 3 3 3 3 2 2 1 1 1 2 2 3 3 3 3 3 2 3 4 3 3 4 5 5 4 4 5 4 3 2 2 3 3 3 3 2 2 2 2 2 2
2 3 3 3 3 3 3 2 2 2 2 3 3 2 3 3 4 6 4 3 2 2 3 2 2 2 3 3 2 2 2 2 3 3 3 3 3 2 2 2 2 2 1
2 3 2 2 2 2 2 3 4 4 5 6 5 5 4 5 7 7 6 5 5 4 3 2 2 2 2 2 3 3 2 2 3 3 2 2 2 2 2 2 2 1 1
2 3 3 2 2 2 2 2 3 4 5 6 6 6 5 6 6 6 5 5 5 4 2 1 2 2 2 2 2 2 3 3 2 2 2 2 2 2 2 2 2 2 2
3 4 3 2 2 2 2 2 2 3 3 3 5 6 6 6 6 6 5 4 3 2 1 1 2 2 2 2 2 3 3 2 2 2 2 2 2 1 1 2 2 1 2
3 2 2 2 2 2 2 2 2 2 2 3 3 4 5 6 6 6 5 2 1 2 2 2 2 2 2 2 2 2 2 2 2 2 2 2 1 1 1 1 1 2 2
2 5 4 2 2 2 2 2 2 2 2 2 2 3 3 3 3 3 3 2 2 2 2 2 2 2 2 2 2 2 2 2 2 1 1 1 1 1 1 1 1 1 1
2 3 4 3 2 2 2 2 2 2 2 2 2 3 4 2 2 2 2 2 2 2 2 2 2 2 2 2 2 2 2 2 1 1 1 1 1 1 1 1 1 1 1
2 2 2 2 2 2 2 2 1 1 1 2 2 3 4 2 2 2 2 2 2 2 2 2 2 2 2 2 2 1 1 2 1 1 1 1 1 1 1 0 0 1 1
1 1 2 1 1 2 2 1 1 1 1 2 2 2 2 2 2 2 2 2 2 2 2 2 2 3 2 2 2 2 2 2 2 2 1 1 1 1 0 0 0 0 0
1 1 1 1 1 1 1 1 1 1 2 2 2 2 2 2 2 3 3 2 2 2 2 2 2 3 4 3 2 2 2 2 2 2 2 1 1 0 0 0 0 0 0
1 1 1 1 1 1 1 1 1 1 2 2 2 2 2 2 2 3 3 3 3 3 3 3 2 3 3 3 3 2 3 3 2 1 1 1 1 0 0 0 0 0 0
1 1 1 1 1 1 1 1 1 2 2 2 2 2 2 2 2 3 3 3 3 3 3 3 3 3 3 3 3 3 3 2 2 1 0 1 1 1 1 1 1 0 0
Wind_Direction
149 160 157 214 231 228 246 258 253 255 256 251 256 259 261 260 253 244 247 246 247 256 259 258 262 264 267 265 257 255 255 253 269 285 285 288 289 292 299 295 292 290 291
147 141 147 114 33 263 270 275 272 277 273 261 258 262 266 266 260 259 260 258 250 259 266 266 270 272 272 274 265 259 259 257 261 281 293 295 289 289 292 295 298 297 291
96 116 103 62 36 312 298 303 299 290 293 298 270 259 265 269 268 262 261 268 261 259 263 265 270 271 275 275 274 269 266 271 264 272 287 293 292 295 296 295 292 293 294
68 84 72 339 308 294 301 309 312 305 305 312 297 277 271 275 274 269 272 277 279 274 267 265 268 264 266 270 273 270 269 273 272 273 282 291 293 293 292 298 303 301 296
53 47 354 326 336 340 333 325 323 315 308 304 301 304 300 290 276 282 274 275 280 287 286 278 275 273 273 275 277 275 273 272 275 277 281 288 290 298 294 294 295 302 297
45 18 353 350 351 341 325 327 333 324 315 312 297 299 300 296 307 310 309 296 293 290 293 294 287 285 290 293 293 292 285 275 272 271 278 280 283 283 285 287 293 303 302
25 12 4 349 341 323 320 337 326 311 308 311 311 303 297 301 315 320 321 312 296 293 294 299 303 301 303 294 297 300 299 292 282 272 272 275 279 281 282 284 282 284 282
17 10 6 356 341 330 325 319 309 300 303 302 302 300 301 309 322 327 328 325 310 297 294 291 290 296 294 297 294 298 299 302 294 282 266 271 273 276 268 271 278 285 286
8 359 352 349 339 333 324 311 307 309 308 306 311 305 303 309 323 329 330 329 321 309 304 301 296 291 299 305 304 298 301 303 309 307 303 300 297 296 293 294 299 304 303
337 328 327 331 326 315 304 301 304 305 303 311 316 313 298 297 316 329 330 317 314 312 315 311 309 309 313 314 303 296 299 303 312 319 322 322 315 313 315 295 282 285 295
323 330 335 328 316 304 305 308 312 319 323 319 315 313 307 307 317 324 324 316 300 305 309 312 311 317 323 328 321 303 296 302 304 309 310 312 314 319 321 316 301 277 280
334 340 337 329 322 325 319 311 313 318 327 321 318 319 322 323 327 322 322 318 310 301 296 300 305 319 325 326 324 323 324 323 313 317 318 320 321 320 320 320 318 311 292
339 332 327 328 326 320 311 308 313 318 315 312 315 316 320 323 325 329 329 325 318 307 294 301 313 323 327 329 332 329 328 326 322 321 318 313 307 304 313 321 332 337 338
326 319 320 323 326 331 326 322 311 303 300 301 306 306 308 312 318 322 322 323 319 309 303 313 324 333 332 328 329 332 331 324 315 306 302 300 305 319 329 329 327 331 342
316 313 319 320 317 322 325 320 313 289 283 288 280 279 292 299 304 311 311 309 299 281 296 310 324 329 332 330 328 329 328 326 321 309 305 311 320 327 331 333 336 344 354
309 308 305 308 307 312 319 325 333 325 326 321 307 297 293 293 305 311 312 314 315 302 302 301 301 300 302 310 316 319 317 316 310 306 304 306 314 322 333 345 350 352 344
282 291 293 297 298 303 307 310 320 335 341 338 331 324 318 316 321 323 323 323 320 315 313 299 296 297 297 305 306 302 301 303 300 299 300 305 310 320 333 340 342 341 335
283 288 290 281 280 286 289 292 293 302 317 322 330 331 331 338 342 342 343 347 346 344 326 307 306 305 305 305 300 297 299 304 304 302 302 306 308 316 327 325 324 327 327
285 280 279 276 276 281 284 286 287 290 295 308 317 326 336 338 340 345 347 352 333 328 322 314 308 303 298 293 292 296 298 300 305 304 306 309 313 319 314 313 320 341 345
282 286 289 283 280 285 290 289 288 286 290 298 306 314 327 333 334 338 342 337 328 317 313 308 305 300 294 286 289 294 297 301 307 300 299 304 303 298 290 299 309 322 331
278 285 294 295 282 279 280 282 282 281 282 291 298 305 314 318 313 320 326 326 317 309 305 303 300 299 294 287 289 292 295 296 294 294 295 293 296 296 291 290 304 333 355
276 284 285 280 281 282 285 286 287 292 295 294 304 315 318 320 318 319 321 322 316 308 301 295 294 292 286 284 286 280 279 280 281 286 291 298 302 294 289 298 350 1 26
279 294 299 293 288 293 310 314 312 312 305 299 304 313 317 321 322 318 318 317 316 315 314 306 299 299 296 285 275 258 260 263 259 254 267 287 292 302 326 6 353 8 33
286 288 290 290 289 290 304 311 308 307 303 302 302 307 314 318 318 316 316 314 315 315 313 309 304 305 308 301 289 273 259 252 249 244 239 245 260 286 21 75 2 350 147
307 299 293 285 283 288 303 305 303 302 301 300 302 308 312 312 311 311 313 314 314 314 314 310 306 305 305 301 297 286 276 280 287 269 212 196 186 189 156 131 120 79 334
320 317 311 309 312 307 300 291 290 295 297 300 307 311 310 310 312 313 314 316 319 317 315 313 315 313 310 303 298 298 300 306 320 320 159 154 153 162 151 133 128 100 56